Location: Oak Glen
(34.0495°N, 116.9470°E)
Time: 21:13:49
(UTC-08:00)

OTV 5 (USA 277) - Pass Details

Date: 07 October 2017
Orbit: 404 x 417 km, 43.0° (Epoch: 07 September)

Event Time Altitude Azimuth Distance (km) Brightness Sun altitude
Rises 03:40:28 0° 206° (SSW) 2,335 ? -11.5°
Reaches altitude 10° 03:42:58 10° 187° (S) 1,476 ? -12.1°
Maximum altitude 03:45:25 19° 140° (SE) 1,056 ? -12.6°
Enters shadow 03:46:04 18° 124° (SE) 1,092 ? -12.7°
